Time,TemperatureF,DewpointF,PressureIn,WindDirection,WindDirectionDegrees,WindSpeedMPH,WindSpeedGustMPH,Humidity,HourlyPrecipIn,Conditions,Clouds,dailyrainin,SoftwareType,DateUTC
2013-06-18 00:11:00,67.0,-99.9,29.91,SSE,155,3.0,5.0,-999,-99.99,,,-99.99,,2013-06-18 08:11:00,
2013-06-18 00:23:00,69.0,-99.9,29.90,South,169,5.0,9.0,-999,-99.99,,,-99.99,,2013-06-18 08:23:00,
2013-06-18 00:33:00,67.0,-99.9,29.90,NNW,343,2.0,7.0,-999,-99.99,,,-99.99,,2013-06-18 08:33:00,
2013-06-18 00:43:00,68.0,-99.9,29.90,NE,45,2.0,6.0,-999,-99.99,,,-99.99,,2013-06-18 08:43:00,
2013-06-18 00:52:00,68.0,-99.9,29.90,North,9,1.0,5.0,-999,-99.99,,,-99.99,,2013-06-18 08:52:00,
2013-06-18 01:02:00,67.0,-99.9,29.90,ESE,109,0.0,3.0,-999,-99.99,,,-99.99,,2013-06-18 09:02:00,
2013-06-18 01:12:00,66.0,-99.9,29.89,NNE,12,3.0,6.0,-999,-99.99,,,-99.99,,2013-06-18 09:12:00,
2013-06-18 01:22:00,66.0,-99.9,29.89,NNE,12,3.0,6.0,-999,-99.99,,,-99.99,,2013-06-18 09:22:00,
2013-06-18 01:34:00,65.0,-99.9,29.88,North,350,3.0,3.0,-999,-99.99,,,-99.99,,2013-06-18 09:34:00,
2013-06-18 01:43:00,65.0,-99.9,29.88,ENE,70,2.0,4.0,-999,-99.99,,,-99.99,,2013-06-18 09:43:00,
2013-06-18 01:53:00,66.0,-99.9,29.88,NNE,14,4.0,5.0,-999,-99.99,,,-99.99,,2013-06-18 09:53:00,
2013-06-18 02:02:00,66.0,-99.9,29.88,ESE,106,3.0,4.0,-999,-99.99,,,-99.99,,2013-06-18 10:02:00,
2013-06-18 02:11:00,66.0,-99.9,29.88,ESE,106,3.0,4.0,-999,-99.99,,,-99.99,,2013-06-18 10:11:00,
2013-06-18 02:22:00,65.0,-99.9,29.88,NNE,26,3.0,4.0,-999,-99.99,,,-99.99,,2013-06-18 10:22:00,
2013-06-18 02:33:00,65.0,-99.9,29.88,NNE,22,1.0,3.0,-999,-99.99,,,-99.99,,2013-06-18 10:33:00,
2013-06-18 02:53:00,-999.0,-99.9,-100.00,ENE,60,2.0,4.0,-999,-99.99,,,-99.99,,2013-06-18 10:53:00,
2013-06-18 03:02:00,65.0,-99.9,29.87,SSW,202,0.0,2.0,-999,-99.99,,,-99.99,,2013-06-18 11:02:00,
2013-06-18 03:11:00,63.0,-99.9,29.87,NNW,343,-999.0,3.0,-999,-99.99,,,-99.99,,2013-06-18 11:11:00,
2013-06-18 03:22:00,63.0,-99.9,29.87,NNW,343,-999.0,3.0,-999,-99.99,,,-99.99,,2013-06-18 11:22:00,
2013-06-18 03:32:00,64.0,-99.9,29.86,SSW,197,0.0,2.0,-999,-99.99,,,-99.99,,2013-06-18 11:32:00,
2013-06-18 03:43:00,63.0,-99.9,29.86,NW,314,3.0,4.0,-999,-99.99,,,-99.99,,2013-06-18 11:43:00,
2013-06-18 03:52:00,63.0,-99.9,29.86,NW,314,3.0,4.0,-999,-99.99,,,-99.99,,2013-06-18 11:52:00,
2013-06-18 04:02:00,63.0,-99.9,29.85,SE,128,1.0,1.0,-999,-99.99,,,-99.99,,2013-06-18 12:02:00,
2013-06-18 04:11:00,63.0,-99.9,29.85,SE,128,1.0,1.0,-999,-99.99,,,-99.99,,2013-06-18 12:11:00,
2013-06-18 04:22:00,63.0,-99.9,29.85,SE,128,1.0,1.0,-999,-99.99,,,-99.99,,2013-06-18 12:22:00,
2013-06-18 04:33:00,63.0,-99.9,29.85,SE,128,1.0,1.0,-999,-99.99,,,-99.99,,2013-06-18 12:33:00,
2013-06-18 04:43:00,62.0,-99.9,29.84,ESE,107,2.0,2.0,-999,-99.99,,,-99.99,,2013-06-18 12:43:00,
2013-06-18 04:52:00,62.0,-99.9,29.84,SE,131,1.0,4.0,-999,-99.99,,,-99.99,,2013-06-18 12:52:00,
2013-06-18 05:02:00,62.0,-99.9,29.84,SE,131,1.0,4.0,-999,-99.99,,,-99.99,,2013-06-18 13:02:00,
2013-06-18 05:12:00,59.0,-99.9,29.84,SSW,212,2.0,2.0,-999,-99.99,,,-99.99,,2013-06-18 13:12:00,
2013-06-18 05:22:00,59.0,-99.9,29.84,SSW,212,2.0,2.0,-999,-99.99,,,-99.99,,2013-06-18 13:22:00,
2013-06-18 05:34:00,57.0,-99.9,29.83,SSE,158,3.0,4.0,-999,-99.99,,,-99.99,,2013-06-18 13:34:00,
2013-06-18 05:43:00,57.0,-99.9,29.83,SSE,162,2.0,3.0,-999,-99.99,,,-99.99,,2013-06-18 13:43:00,
2013-06-18 05:53:00,58.0,-99.9,29.83,SSE,162,2.0,3.0,-999,-99.99,,,-99.99,,2013-06-18 13:53:00,
2013-06-18 06:02:00,58.0,-99.9,29.83,SSE,162,2.0,3.0,-999,-99.99,,,-99.99,,2013-06-18 14:02:00,
2013-06-18 06:12:00,59.0,-99.9,29.83,ENE,68,1.0,1.0,-999,-99.99,,,-99.99,,2013-06-18 14:12:00,
2013-06-18 06:22:00,59.0,-99.9,29.83,ENE,68,1.0,1.0,-999,-99.99,,,-99.99,,2013-06-18 14:22:00,
2013-06-18 06:33:00,59.0,-99.9,29.83,ENE,68,1.0,1.0,-999,-99.99,,,-99.99,,2013-06-18 14:33:00,
2013-06-18 06:43:00,56.0,-99.9,29.82,SSE,160,2.0,3.0,-999,-99.99,,,-99.99,,2013-06-18 14:43:00,
2013-06-18 06:53:00,55.0,-99.9,29.82,SE,145,2.0,4.0,-999,-99.99,,,-99.99,,2013-06-18 14:53:00,
2013-06-18 07:02:00,56.0,-99.9,29.82,SE,138,4.0,4.0,-999,-99.99,,,-99.99,,2013-06-18 15:02:00,
2013-06-18 07:11:00,58.0,-99.9,29.82,SSE,152,3.0,4.0,-999,-99.99,,,-99.99,,2013-06-18 15:11:00,
2013-06-18 07:22:00,58.0,-99.9,29.82,SSE,152,3.0,4.0,-999,-99.99,,,-99.99,,2013-06-18 15:22:00,
2013-06-18 07:33:00,58.0,-99.9,29.81,SSE,157,2.0,3.0,-999,-99.99,,,-99.99,,2013-06-18 15:33:00,
2013-06-18 07:43:00,58.0,-99.9,29.82,SSW,197,1.0,3.0,-999,-99.99,,,-99.99,,2013-06-18 15:43:00,
2013-06-18 07:53:00,59.0,-99.9,29.82,SSW,198,3.0,5.0,-999,-99.99,,,-99.99,,2013-06-18 15:53:00,
2013-06-18 08:02:00,59.0,-99.9,29.82,SSW,198,3.0,5.0,-999,-99.99,,,-99.99,,2013-06-18 16:02:00,
2013-06-18 08:12:00,59.0,-99.9,29.82,SSW,198,3.0,5.0,-999,-99.99,,,-99.99,,2013-06-18 16:12:00,
2013-06-18 08:23:00,63.0,-99.9,29.82,North,-999,-999.0,-999.0,-999,-99.99,,,-99.99,,2013-06-18 16:23:00,
2013-06-18 08:33:00,66.0,-99.9,29.82,North,-999,-999.0,-999.0,-999,-99.99,,,-99.99,,2013-06-18 16:33:00,
2013-06-18 08:43:00,66.0,-99.9,29.81,North,-999,-999.0,-999.0,-999,-99.99,,,-99.99,,2013-06-18 16:43:00,
2013-06-18 08:53:00,66.0,-99.9,29.81,North,-999,-999.0,-999.0,-999,-99.99,,,-99.99,,2013-06-18 16:53:00,
2013-06-18 09:02:00,61.0,-99.9,29.81,SSE,160,0.0,2.0,-999,-99.99,,,-99.99,,2013-06-18 17:02:00,
2013-06-18 09:12:00,60.0,-99.9,29.81,South,185,2.0,3.0,-999,-99.99,,,-99.99,,2013-06-18 17:12:00,
2013-06-18 09:23:00,62.0,-99.9,29.81,SSE,150,2.0,5.0,-999,-99.99,,,-99.99,,2013-06-18 17:23:00,
2013-06-18 09:34:00,64.0,-99.9,29.81,SSW,206,1.0,3.0,-999,-99.99,,,-99.99,,2013-06-18 17:34:00,
2013-06-18 09:43:00,63.0,-99.9,29.81,SSE,164,3.0,4.0,-999,-99.99,,,-99.99,,2013-06-18 17:43:00,
2013-06-18 09:53:00,67.0,-99.9,29.81,NE,56,-999.0,2.0,-999,-99.99,,,-99.99,,2013-06-18 17:53:00,
2013-06-18 10:02:00,67.0,-99.9,29.80,North,-999,-999.0,-999.0,-999,-99.99,,,-99.99,,2013-06-18 18:02:00,
2013-06-18 10:12:00,68.0,-99.9,29.80,SW,220,0.0,2.0,-999,-99.99,,,-99.99,,2013-06-18 18:12:00,
2013-06-18 10:22:00,66.0,-99.9,29.80,East,93,-999.0,10.0,-999,-99.99,,,-99.99,,2013-06-18 18:22:00,
2013-06-18 10:33:00,66.0,-99.9,29.80,East,93,-999.0,10.0,-999,-99.99,,,-99.99,,2013-06-18 18:33:00,
2013-06-18 10:43:00,65.0,-99.9,29.80,NNE,29,3.0,8.0,-999,-99.99,,,-99.99,,2013-06-18 18:43:00,
2013-06-18 10:53:00,67.0,-99.9,29.81,NNW,338,0.0,2.0,-999,-99.99,,,-99.99,,2013-06-18 18:53:00,
2013-06-18 11:02:00,67.0,-99.9,29.80,NE,41,2.0,8.0,-999,-99.99,,,-99.99,,2013-06-18 19:02:00,
2013-06-18 11:12:00,67.0,-99.9,29.80,NE,41,2.0,8.0,-999,-99.99,,,-99.99,,2013-06-18 19:12:00,
2013-06-18 11:22:00,63.0,-99.9,29.80,ENE,72,5.0,11.0,-999,-99.99,,,-99.99,,2013-06-18 19:22:00,
2013-06-18 11:33:00,66.0,-99.9,29.80,NNW,340,2.0,6.0,-999,-99.99,,,-99.99,,2013-06-18 19:33:00,
2013-06-18 11:43:00,67.0,-99.9,29.80,SE,144,2.0,12.0,-999,-99.99,,,-99.99,,2013-06-18 19:43:00,
2013-06-18 11:53:00,62.0,-99.9,29.80,NE,42,5.0,14.0,-999,-99.99,,,-99.99,,2013-06-18 19:53:00,
2013-06-18 12:02:00,62.0,-99.9,29.80,NE,42,5.0,14.0,-999,-99.99,,,-99.99,,2013-06-18 20:02:00,
2013-06-18 12:12:00,62.0,-99.9,29.80,ENE,78,6.0,11.0,-999,-99.99,,,-99.99,,2013-06-18 20:12:00,
2013-06-18 12:23:00,63.0,-99.9,29.80,East,79,6.0,13.0,-999,-99.99,,,-99.99,,2013-06-18 20:23:00,
2013-06-18 12:33:00,67.0,-99.9,29.80,NNW,344,2.0,11.0,-999,-99.99,,,-99.99,,2013-06-18 20:33:00,
2013-06-18 12:53:00,62.0,-99.9,29.79,ENE,60,6.0,13.0,-999,-99.99,,,-99.99,,2013-06-18 20:53:00,
2013-06-18 13:02:00,62.0,-99.9,29.79,ENE,60,6.0,13.0,-999,-99.99,,,-99.99,,2013-06-18 21:02:00,
2013-06-18 13:12:00,61.0,-99.9,29.80,ENE,69,4.0,10.0,-999,-99.99,,,-99.99,,2013-06-18 21:12:00,
2013-06-18 13:23:00,60.0,-99.9,29.80,NNE,28,3.0,9.0,-999,-99.99,,,-99.99,,2013-06-18 21:23:00,
2013-06-18 13:33:00,60.0,-99.9,29.80,NNE,28,3.0,9.0,-999,-99.99,,,-99.99,,2013-06-18 21:33:00,
2013-06-18 13:43:00,61.0,-99.9,29.80,NE,42,3.0,9.0,-999,-99.99,,,-99.99,,2013-06-18 21:43:00,
2013-06-18 13:52:00,60.0,-99.9,29.80,NNE,23,6.0,10.0,-999,-99.99,,,-99.99,,2013-06-18 21:52:00,
2013-06-18 14:02:00,60.0,-99.9,29.80,NNE,12,9.0,11.0,-999,-99.99,,,-99.99,,2013-06-18 22:02:00,
2013-06-18 14:12:00,60.0,-99.9,29.80,NNE,15,7.0,13.0,-999,-99.99,,,-99.99,,2013-06-18 22:12:00,
2013-06-18 14:22:00,59.0,-99.9,29.80,NNE,16,5.0,11.0,-999,-99.99,,,-99.99,,2013-06-18 22:22:00,
2013-06-18 14:34:00,58.0,-99.9,29.81,NNE,20,7.0,11.0,-999,-99.99,,,-99.99,,2013-06-18 22:34:00,
2013-06-18 14:43:00,58.0,-99.9,29.81,NNE,16,7.0,11.0,-999,-99.99,,,-99.99,,2013-06-18 22:43:00,
2013-06-18 14:53:00,58.0,-99.9,29.81,NNE,16,7.0,11.0,-999,-99.99,,,-99.99,,2013-06-18 22:53:00,
2013-06-18 15:02:00,59.0,-99.9,29.81,North,359,6.0,11.0,-999,-99.99,,,-99.99,,2013-06-18 23:02:00,
2013-06-18 15:12:00,58.0,-99.9,29.82,NNE,16,4.0,12.0,-999,-99.99,,,-99.99,,2013-06-18 23:12:00,
2013-06-18 15:23:00,59.0,-99.9,29.82,ENE,60,1.0,7.0,-999,-99.99,,,-99.99,,2013-06-18 23:23:00,
2013-06-18 15:39:00,59.0,-99.9,29.82,North,6,2.0,7.0,-999,-99.99,,,-99.99,,2013-06-18 23:39:00,
2013-06-18 15:49:00,58.0,-99.9,29.83,NNE,26,3.0,15.0,-999,-99.99,,,-99.99,,2013-06-18 23:49:00,
2013-06-18 16:02:00,57.0,-99.9,29.83,NNE,25,6.0,11.0,-999,-99.99,,,-99.99,,2013-06-19 00:02:00,
2013-06-18 16:12:00,55.0,-99.9,29.83,ENE,67,6.0,9.0,-999,-99.99,,,-99.99,,2013-06-19 00:12:00,
2013-06-18 16:22:00,56.0,-99.9,29.83,NE,35,5.0,11.0,-999,-99.99,,,-99.99,,2013-06-19 00:22:00,
2013-06-18 16:33:00,55.0,-99.9,29.83,NNE,33,6.0,10.0,-999,-99.99,,,-99.99,,2013-06-19 00:33:00,
2013-06-18 16:43:00,56.0,-99.9,29.84,NE,49,5.0,12.0,-999,-99.99,,,-99.99,,2013-06-19 00:43:00,
2013-06-18 16:53:00,55.0,-99.9,29.84,NNE,13,10.0,16.0,-999,-99.99,,,-99.99,,2013-06-19 00:53:00,
2013-06-18 17:02:00,55.0,-99.9,29.84,NNE,13,10.0,16.0,-999,-99.99,,,-99.99,,2013-06-19 01:02:00,
2013-06-18 17:11:00,55.0,-99.9,29.85,North,7,10.0,21.0,-999,-99.99,,,-99.99,,2013-06-19 01:11:00,
2013-06-18 17:22:00,55.0,-99.9,29.85,North,6,8.0,17.0,-999,-99.99,,,-99.99,,2013-06-19 01:22:00,
2013-06-18 17:32:00,55.0,-99.9,29.85,NNE,13,9.0,15.0,-999,-99.99,,,-99.99,,2013-06-19 01:32:00,
2013-06-18 17:43:00,54.0,-99.9,29.86,North,3,11.0,19.0,-999,-99.99,,,-99.99,,2013-06-19 01:43:00,
2013-06-18 17:53:00,54.0,-99.9,29.86,North,3,15.0,21.0,-999,-99.99,,,-99.99,,2013-06-19 01:53:00,
2013-06-18 18:02:00,54.0,-99.9,29.86,North,5,10.0,20.0,-999,-99.99,,,-99.99,,2013-06-19 02:02:00,
2013-06-18 18:11:00,54.0,-99.9,29.86,North,6,10.0,16.0,-999,-99.99,,,-99.99,,2013-06-19 02:11:00,
2013-06-18 18:21:00,54.0,-99.9,29.86,North,6,10.0,16.0,-999,-99.99,,,-99.99,,2013-06-19 02:21:00,
2013-06-18 18:32:00,54.0,-99.9,29.86,North,11,8.0,13.0,-999,-99.99,,,-99.99,,2013-06-19 02:32:00,
2013-06-18 18:43:00,55.0,-99.9,29.86,NNE,18,10.0,15.0,-999,-99.99,,,-99.99,,2013-06-19 02:43:00,
2013-06-18 18:52:00,54.0,-99.9,29.86,NNE,17,11.0,14.0,-999,-99.99,,,-99.99,,2013-06-19 02:52:00,
2013-06-18 19:01:00,55.0,-99.9,29.86,NNE,19,11.0,14.0,-999,-99.99,,,-99.99,,2013-06-19 03:01:00,
2013-06-18 19:12:00,55.0,-99.9,29.85,North,10,5.0,11.0,-999,-99.99,,,-99.99,,2013-06-19 03:12:00,
2013-06-18 19:22:00,54.0,-99.9,29.86,NNE,18,9.0,11.0,-999,-99.99,,,-99.99,,2013-06-19 03:22:00,
2013-06-18 19:33:00,55.0,-99.9,29.86,North,5,8.0,12.0,-999,-99.99,,,-99.99,,2013-06-19 03:33:00,
2013-06-18 19:43:00,54.0,-99.9,29.86,NNE,15,6.0,9.0,-999,-99.99,,,-99.99,,2013-06-19 03:43:00,
2013-06-18 19:52:00,54.0,-99.9,29.86,NNE,20,4.0,11.0,-999,-99.99,,,-99.99,,2013-06-19 03:52:00,
2013-06-18 20:02:00,55.0,-99.9,29.86,NNE,17,4.0,8.0,-999,-99.99,,,-99.99,,2013-06-19 04:02:00,
2013-06-18 20:12:00,57.0,-99.9,29.86,WSW,252,-999.0,4.0,-999,-99.99,,,-99.99,,2013-06-19 04:12:00,
2013-06-18 20:23:00,55.0,-99.9,29.86,NE,44,4.0,6.0,-999,-99.99,,,-99.99,,2013-06-19 04:23:00,
2013-06-18 20:33:00,55.0,-99.9,29.86,East,79,3.0,6.0,-999,-99.99,,,-99.99,,2013-06-19 04:33:00,
2013-06-18 20:43:00,54.0,-99.9,29.86,NNE,12,7.0,10.0,-999,-99.99,,,-99.99,,2013-06-19 04:43:00,
2013-06-18 20:53:00,53.0,-99.9,29.87,NNE,13,9.0,13.0,-999,-99.99,,,-99.99,,2013-06-19 04:53:00,
2013-06-18 21:01:00,53.0,-99.9,29.87,North,11,10.0,14.0,-999,-99.99,,,-99.99,,2013-06-19 05:01:00,
2013-06-18 21:11:00,53.0,-99.9,29.87,NNE,18,9.0,14.0,-999,-99.99,,,-99.99,,2013-06-19 05:11:00,
2013-06-18 21:23:00,53.0,-99.9,29.87,North,8,7.0,12.0,-999,-99.99,,,-99.99,,2013-06-19 05:23:00,
2013-06-18 21:33:00,53.0,-99.9,29.87,NNE,30,7.0,9.0,-999,-99.99,,,-99.99,,2013-06-19 05:33:00,
2013-06-18 21:43:00,53.0,-99.9,29.87,NNE,17,5.0,11.0,-999,-99.99,,,-99.99,,2013-06-19 05:43:00,
2013-06-18 21:52:00,53.0,-99.9,29.88,NNE,15,11.0,14.0,-999,-99.99,,,-99.99,,2013-06-19 05:52:00,
2013-06-18 22:02:00,52.0,-99.9,29.88,North,8,9.0,14.0,-999,-99.99,,,-99.99,,2013-06-19 06:02:00,
2013-06-18 22:11:00,52.0,-99.9,29.88,North,5,11.0,18.0,-999,-99.99,,,-99.99,,2013-06-19 06:11:00,
2013-06-18 22:22:00,52.0,-99.9,29.88,North,5,11.0,18.0,-999,-99.99,,,-99.99,,2013-06-19 06:22:00,
2013-06-18 22:34:00,52.0,-99.9,29.89,North,2,11.0,16.0,-999,-99.99,,,-99.99,,2013-06-19 06:34:00,
2013-06-18 22:43:00,51.0,-99.9,29.89,North,1,10.0,14.0,-999,-99.99,,,-99.99,,2013-06-19 06:43:00,
2013-06-18 22:52:00,52.0,-99.9,29.89,North,1,7.0,9.0,-999,-99.99,,,-99.99,,2013-06-19 06:52:00,
2013-06-18 23:01:00,52.0,-99.9,29.89,North,4,6.0,10.0,-999,-99.99,,,-99.99,,2013-06-19 07:01:00,
2013-06-18 23:12:00,52.0,-99.9,29.90,North,7,5.0,10.0,-999,-99.99,,,-99.99,,2013-06-19 07:12:00,
2013-06-18 23:22:00,52.0,-99.9,29.90,North,4,11.0,15.0,-999,-99.99,,,-99.99,,2013-06-19 07:22:00,
2013-06-18 23:33:00,51.0,-99.9,29.90,North,5,10.0,15.0,-999,-99.99,,,-99.99,,2013-06-19 07:33:00,
2013-06-18 23:43:00,51.0,-99.9,29.91,North,5,10.0,14.0,-999,-99.99,,,-99.99,,2013-06-19 07:43:00,
2013-06-18 23:54:00,51.0,-99.9,29.91,North,5,10.0,14.0,-999,-99.99,,,-99.99,,2013-06-19 07:54:00,